Regional Weather Roundup
Issued by NWS

Home | Current Version | Previous Version | Graphics & Text | Print | Product List | Glossary On
Versions: 1 2 3 4 5 6 7 8 9 10 11 12 13 14 15 16 17 18 19 20 21 22 23 24 25 26 27 28 29 30 31 32 33 34 35 36 37 38 39 40 41 42 43 44 45 46 47 48 49 50
000
ASUS44 KMEG 271310
RWRTN
TENNESSEE HOURLY STATE WEATHER ROUNDUP
NATIONAL WEATHER SERVICE MEMPHIS TN
700 AM CST THU NOV 27 2014

TNZ002-004-019-021-049-052-054-088>092-271400-
WEST TENNESSEE

CITY           SKY/WX    TMP DP  RH WIND       PRES   REMARKS
MEMPHIS INTL   CLOUDY    39  28  64 N12G21    30.43R WCI  32
NWS MEMPHIS      N/A     38 N/A N/A MISG        N/A
JACKSON        CLOUDY    38  30  73 NW12      30.37R WCI  30
DYERSBURG      CLOUDY    37  21  52 N12       30.41R WCI  30
UNION CITY     CLOUDY    34  30  86 N14       30.37R WCI  24
PARIS          CLOUDY    34  28  80 N8        30.35R WCI  27
HUNTINGDON     CLOUDY    35  30  82 NW9       30.36R WCI  28
LEXINGTON      CLOUDY    36  30  80 NW10      30.33R WCI  28
SAVANNAH       CLOUDY    37  28  70 N10       30.35R WCI  30
$$

TNZ008-025-027-028-033-062-065-066-271400-
NORTH MIDDLE TENNESSEE

CITY           SKY/WX    TMP DP  RH WIND       PRES   REMARKS
NASHVILLE      CLOUDY    37  32  82 NW9       30.30R WCI  30
CLARKSVILLE    CLOUDY    35  31  85 N14       30.34R WCI  26
COOKEVILLE     CLOUDY    36  34  93 NW7       30.22R WCI  30
CROSSVILLE     CLOUDY    33  29  85 NW15G24   30.17R WCI  23
$$

TNZ061-075-076-078-094-096-097-271400-
SOUTH MIDDLE TENNESSEE

CITY           SKY/WX    TMP DP  RH WIND       PRES   REMARKS
FAYETTEVILLE   CLOUDY    36  30  80 MISG      30.26R
TULLAHOMA      CLOUDY    34  30  86 N14       30.26R WCI  24
WINCHESTER     CLOUDY    36  32  87 NW12      30.26R WCI  27
MCMINNVILLE    MOCLDY    36  30  80 NW6       30.24R WCI  31
COLUMBIA       CLOUDY    37  36  93 VRB7      30.29R WCI  32
SHELBYVILLE    CLOUDY    37  32  81 N13       30.29R WCI  29
$$

TNZ017-018-042-046-047-271400-
NORTHEAST TENNESSEE

CITY           SKY/WX    TMP DP  RH WIND       PRES   REMARKS
TRI CITIES     FLURRIES  35  33  92 W9        30.07R WCI  28
ELIZABETHTON   CLOUDY    32  30  93 W6        30.06R WCI  26
$$

TNZ012-013-036-069-073-074-271400-
CENTRAL EAST TENNESSEE

CITY           SKY/WX    TMP DP  RH WIND       PRES   REMARKS
KNOXVILLE      CLOUDY    38  30  73 W12G22    30.16R WCI  30
OAK RIDGE      CLOUDY    38  32  79 S7        30.18R WCI  33
GATLINBURG     CLOUDY    37  30  75 W10       30.14R WCI  30
MORRISTOWN     MOSUNNY   36  36 100 W10       30.11R WCI  28
$$

TNZ083-085-099-271400-
SOUTHEAST TENNESSEE

CITY           SKY/WX    TMP DP  RH WIND       PRES   REMARKS
CHATTANOOGA    MOCLDY    39  33  79 NW8       30.22R WCI  33
$$

SKY/WX REPORTED AS FAIR MEANS FEW OR NO CLOUDS BELOW
12 THOUSAND FEET.



USA.gov is the U.S. government's official web portal to all federal, state and local government web resources and services.